Time,TemperatureF,DewpointF,PressureIn,WindDirection,WindDirectionDegrees,WindSpeedMPH,WindSpeedGustMPH,Humidity,HourlyPrecipIn,Conditions,Clouds,dailyrainin,SoftwareType,DateUTC
2013-03-17 00:02:00,37.0,36.0,29.77,East,101,1.0,-999.0,95,-99.99,,,-99.99,,2013-03-17 07:02:00,
2013-03-17 00:11:00,37.0,36.0,29.77,East,101,1.0,-999.0,95,-99.99,,,-99.99,,2013-03-17 07:11:00,
2013-03-17 00:22:00,37.0,36.0,29.80,WNW,283,4.0,-999.0,95,-99.99,,,-99.99,,2013-03-17 07:22:00,
2013-03-17 00:32:00,32.0,30.0,29.83,SSW,196,11.0,-999.0,94,-99.99,,,-99.99,,2013-03-17 07:32:00,
2013-03-17 00:41:00,32.0,30.0,29.83,SSW,196,11.0,-999.0,94,-99.99,,,-99.99,,2013-03-17 07:41:00,
2013-03-17 00:52:00,32.0,31.0,29.83,SW,232,12.0,-999.0,96,-99.99,,,-99.99,,2013-03-17 07:52:00,
2013-03-17 01:02:00,31.0,30.0,29.84,WNW,303,7.0,-999.0,96,-99.99,,,-99.99,,2013-03-17 08:02:00,
2013-03-17 01:12:00,31.0,30.0,29.84,WNW,303,6.0,-999.0,96,-99.99,,,-99.99,,2013-03-17 08:12:00,
2013-03-17 01:22:00,31.0,30.0,29.84,WNW,303,6.0,-999.0,96,-99.99,,,-99.99,,2013-03-17 08:22:00,
2013-03-17 01:32:00,31.0,30.0,29.86,WNW,296,3.0,-999.0,96,-99.99,,,-99.99,,2013-03-17 08:32:00,
2013-03-17 01:42:00,31.0,30.0,29.86,WNW,296,3.0,-999.0,96,-99.99,,,-99.99,,2013-03-17 08:42:00,
2013-03-17 01:52:00,31.0,30.0,29.87,WNW,296,3.0,-999.0,96,-99.99,,,-99.99,,2013-03-17 08:52:00,
2013-03-17 02:02:00,31.0,30.0,29.89,NW,305,2.0,-999.0,96,-99.99,,,-99.99,,2013-03-17 09:02:00,
2013-03-17 02:11:00,31.0,30.0,29.89,NW,305,2.0,-999.0,96,-99.99,,,-99.99,,2013-03-17 09:11:00,
2013-03-17 02:22:00,31.0,30.0,29.91,West,278,2.0,-999.0,96,-99.99,,,-99.99,,2013-03-17 09:22:00,
2013-03-17 02:32:00,31.0,30.0,29.91,West,278,0.0,-999.0,96,-99.99,,,-99.99,,2013-03-17 09:32:00,
2013-03-17 02:42:00,31.0,30.0,29.91,West,278,0.0,-999.0,96,-99.99,,,-99.99,,2013-03-17 09:42:00,
2013-03-17 02:52:00,31.0,30.0,29.91,West,278,0.0,-999.0,96,-99.99,,,-99.99,,2013-03-17 09:52:00,
2013-03-17 03:02:00,30.0,29.0,29.91,SSW,194,1.0,-999.0,95,-99.99,,,-99.99,,2013-03-17 10:02:00,
2013-03-17 03:12:00,30.0,29.0,29.91,SSW,194,1.0,-999.0,95,-99.99,,,-99.99,,2013-03-17 10:12:00,
2013-03-17 03:23:00,30.0,29.0,29.92,SSW,194,0.0,-999.0,95,-99.99,,,-99.99,,2013-03-17 10:23:00,
2013-03-17 03:33:00,30.0,29.0,29.90,WNW,302,1.0,-999.0,95,-99.99,,,-99.99,,2013-03-17 10:33:00,
2013-03-17 03:42:00,30.0,29.0,29.90,WNW,302,1.0,-999.0,95,-99.99,,,-99.99,,2013-03-17 10:42:00,
2013-03-17 03:52:00,30.0,29.0,29.90,WNW,302,0.0,-999.0,95,-99.99,,,-99.99,,2013-03-17 10:52:00,
2013-03-17 04:02:00,29.0,27.0,29.90,West,281,0.0,-999.0,94,-99.99,,,-99.99,,2013-03-17 11:02:00,
2013-03-17 04:11:00,29.0,27.0,29.90,West,281,0.0,-999.0,94,-99.99,,,-99.99,,2013-03-17 11:11:00,
2013-03-17 04:22:00,29.0,28.0,29.90,West,281,0.0,-999.0,95,-99.99,,,-99.99,,2013-03-17 11:22:00,
2013-03-17 04:32:00,29.0,28.0,29.91,West,281,0.0,-999.0,95,-99.99,,,-99.99,,2013-03-17 11:32:00,
2013-03-17 04:42:00,29.0,28.0,29.91,West,281,0.0,-999.0,95,-99.99,,,-99.99,,2013-03-17 11:42:00,
2013-03-17 04:51:00,30.0,29.0,29.91,West,281,0.0,-999.0,95,-99.99,,,-99.99,,2013-03-17 11:51:00,
2013-03-17 05:01:00,30.0,29.0,29.91,NW,310,0.0,-999.0,95,-99.99,,,-99.99,,2013-03-17 12:01:00,
2013-03-17 05:12:00,30.0,29.0,29.91,NW,310,0.0,-999.0,95,-99.99,,,-99.99,,2013-03-17 12:12:00,
2013-03-17 05:21:00,30.0,29.0,29.92,NW,310,0.0,-999.0,95,-99.99,,,-99.99,,2013-03-17 12:21:00,
2013-03-17 05:32:00,30.0,29.0,29.92,NW,310,0.0,-999.0,95,-99.99,,,-99.99,,2013-03-17 12:32:00,
2013-03-17 05:42:00,30.0,29.0,29.92,NW,310,0.0,-999.0,95,-99.99,,,-99.99,,2013-03-17 12:42:00,
2013-03-17 05:52:00,30.0,29.0,29.93,NW,310,0.0,-999.0,95,-99.99,,,-99.99,,2013-03-17 12:52:00,
2013-03-17 06:01:00,29.0,27.0,29.93,NW,310,0.0,-999.0,94,-99.99,,,-99.99,,2013-03-17 13:01:00,
2013-03-17 06:11:00,29.0,27.0,29.93,NW,310,0.0,-999.0,94,-99.99,,,-99.99,,2013-03-17 13:11:00,
2013-03-17 06:22:00,29.0,27.0,29.93,NW,306,1.0,-999.0,93,-99.99,,,-99.99,,2013-03-17 13:22:00,
2013-03-17 06:32:00,29.0,27.0,29.94,NW,306,0.0,-999.0,93,-99.99,,,-99.99,,2013-03-17 13:32:00,
2013-03-17 06:42:00,29.0,27.0,29.94,NW,306,0.0,-999.0,93,-99.99,,,-99.99,,2013-03-17 13:42:00,
2013-03-17 06:52:00,30.0,28.0,29.94,SSW,211,3.0,-999.0,91,-99.99,,,-99.99,,2013-03-17 13:52:00,
2013-03-17 07:02:00,30.0,27.0,29.94,WNW,298,3.0,-999.0,90,-99.99,,,-99.99,,2013-03-17 14:02:00,
2013-03-17 07:11:00,30.0,27.0,29.94,WNW,298,3.0,-999.0,90,-99.99,,,-99.99,,2013-03-17 14:11:00,
2013-03-17 07:22:00,29.0,26.0,29.95,WNW,283,3.0,-999.0,89,-99.99,,,-99.99,,2013-03-17 14:22:00,
2013-03-17 07:32:00,29.0,26.0,29.96,WSW,241,4.0,-999.0,89,-99.99,,,-99.99,,2013-03-17 14:32:00,
2013-03-17 07:42:00,29.0,26.0,29.96,WSW,241,4.0,-999.0,89,-99.99,,,-99.99,,2013-03-17 14:42:00,
2013-03-17 07:52:00,29.0,26.0,29.96,WSW,245,6.0,-999.0,90,-99.99,,,-99.99,,2013-03-17 14:52:00,
2013-03-17 08:02:00,29.0,26.0,29.96,WSW,245,6.0,-999.0,90,-99.99,,,-99.99,,2013-03-17 15:02:00,
2013-03-17 08:11:00,29.0,26.0,29.96,WSW,245,6.0,-999.0,90,-99.99,,,-99.99,,2013-03-17 15:11:00,
2013-03-17 08:22:00,29.0,26.0,29.96,WSW,245,6.0,-999.0,90,-99.99,,,-99.99,,2013-03-17 15:22:00,
2013-03-17 08:33:00,29.0,27.0,29.99,West,275,4.0,-999.0,92,-99.99,,,-99.99,,2013-03-17 15:33:00,
2013-03-17 08:43:00,29.0,27.0,29.99,West,275,4.0,-999.0,92,-99.99,,,-99.99,,2013-03-17 15:43:00,
2013-03-17 08:53:00,29.0,27.0,30.00,WSW,238,4.0,-999.0,92,-99.99,,,-99.99,,2013-03-17 15:53:00,
2013-03-17 09:03:00,29.0,27.0,30.00,WSW,238,4.0,-999.0,92,-99.99,,,-99.99,,2013-03-17 16:03:00,
2013-03-17 09:12:00,29.0,27.0,30.00,WSW,238,4.0,-999.0,92,-99.99,,,-99.99,,2013-03-17 16:12:00,
2013-03-17 09:22:00,29.0,27.0,30.01,SW,217,5.0,-999.0,91,-99.99,,,-99.99,,2013-03-17 16:22:00,
2013-03-17 09:33:00,30.0,28.0,30.01,WNW,299,5.0,-999.0,91,-99.99,,,-99.99,,2013-03-17 16:33:00,
2013-03-17 09:42:00,30.0,28.0,30.01,WNW,299,5.0,-999.0,91,-99.99,,,-99.99,,2013-03-17 16:42:00,
2013-03-17 09:52:00,29.0,27.0,30.01,SSW,198,5.0,-999.0,91,-99.99,,,-99.99,,2013-03-17 16:52:00,
2013-03-17 10:02:00,30.0,28.0,30.02,WNW,300,5.0,-999.0,92,-99.99,,,-99.99,,2013-03-17 17:02:00,
2013-03-17 10:12:00,30.0,28.0,30.02,WNW,300,5.0,-999.0,92,-99.99,,,-99.99,,2013-03-17 17:12:00,
2013-03-17 10:22:00,30.0,28.0,30.03,West,271,4.0,-999.0,91,-99.99,,,-99.99,,2013-03-17 17:22:00,
2013-03-17 10:32:00,30.0,28.0,30.03,WSW,240,1.0,-999.0,92,-99.99,,,-99.99,,2013-03-17 17:32:00,
2013-03-17 10:41:00,30.0,28.0,30.03,WSW,240,1.0,-999.0,92,-99.99,,,-99.99,,2013-03-17 17:41:00,
2013-03-17 10:53:00,30.0,28.0,30.04,WSW,238,2.0,-999.0,92,-99.99,,,-99.99,,2013-03-17 17:53:00,
2013-03-17 11:01:00,31.0,29.0,30.05,WNW,288,1.0,-999.0,93,-99.99,,,-99.99,,2013-03-17 18:01:00,
2013-03-17 11:12:00,31.0,29.0,30.05,WNW,288,1.0,-999.0,93,-99.99,,,-99.99,,2013-03-17 18:12:00,
2013-03-17 11:22:00,31.0,29.0,30.06,WNW,294,3.0,-999.0,92,-99.99,,,-99.99,,2013-03-17 18:22:00,
2013-03-17 11:32:00,31.0,29.0,30.06,WNW,288,3.0,-999.0,91,-99.99,,,-99.99,,2013-03-17 18:32:00,
2013-03-17 11:42:00,31.0,29.0,30.06,WNW,288,3.0,-999.0,91,-99.99,,,-99.99,,2013-03-17 18:42:00,
2013-03-17 11:52:00,32.0,29.0,30.06,SW,219,6.0,-999.0,90,-99.99,,,-99.99,,2013-03-17 18:52:00,
2013-03-17 12:02:00,33.0,29.0,30.07,SW,221,7.0,-999.0,86,-99.99,,,-99.99,,2013-03-17 19:02:00,
2013-03-17 12:12:00,33.0,29.0,30.07,SW,221,7.0,-999.0,86,-99.99,,,-99.99,,2013-03-17 19:12:00,
2013-03-17 12:22:00,33.0,28.0,30.08,West,264,10.0,-999.0,83,-99.99,,,-99.99,,2013-03-17 19:22:00,
2013-03-17 12:32:00,34.0,30.0,30.08,West,277,8.0,-999.0,84,-99.99,,,-99.99,,2013-03-17 19:32:00,
2013-03-17 12:41:00,34.0,30.0,30.08,West,277,8.0,-999.0,84,-99.99,,,-99.99,,2013-03-17 19:41:00,
2013-03-17 12:53:00,34.0,29.0,30.08,WNW,288,9.0,-999.0,81,-99.99,,,-99.99,,2013-03-17 19:53:00,
2013-03-17 13:02:00,34.0,29.0,30.08,NNW,327,7.0,-999.0,83,-99.99,,,-99.99,,2013-03-17 20:02:00,
2013-03-17 13:11:00,34.0,29.0,30.08,NNW,327,7.0,-999.0,83,-99.99,,,-99.99,,2013-03-17 20:11:00,
2013-03-17 13:22:00,33.0,29.0,30.09,WNW,297,8.0,-999.0,84,-99.99,,,-99.99,,2013-03-17 20:22:00,
2013-03-17 13:32:00,33.0,28.0,30.09,West,271,7.0,-999.0,83,-99.99,,,-99.99,,2013-03-17 20:32:00,
2013-03-17 13:42:00,33.0,28.0,30.09,West,271,7.0,-999.0,83,-99.99,,,-99.99,,2013-03-17 20:42:00,
2013-03-17 13:52:00,33.0,29.0,30.09,WNW,300,7.0,-999.0,84,-99.99,,,-99.99,,2013-03-17 20:52:00,
2013-03-17 14:01:00,34.0,30.0,30.09,WNW,296,12.0,-999.0,86,-99.99,,,-99.99,,2013-03-17 21:01:00,
2013-03-17 14:11:00,34.0,30.0,30.09,WNW,296,12.0,-999.0,86,-99.99,,,-99.99,,2013-03-17 21:11:00,
2013-03-17 14:22:00,35.0,30.0,30.08,NW,312,10.0,-999.0,83,-99.99,,,-99.99,,2013-03-17 21:22:00,
2013-03-17 14:32:00,35.0,29.0,30.08,West,281,7.0,-999.0,78,-99.99,,,-99.99,,2013-03-17 21:32:00,
2013-03-17 14:42:00,35.0,29.0,30.08,West,281,7.0,-999.0,78,-99.99,,,-99.99,,2013-03-17 21:42:00,
2013-03-17 14:52:00,36.0,30.0,30.08,West,264,7.0,-999.0,78,-99.99,,,-99.99,,2013-03-17 21:52:00,
2013-03-17 15:02:00,38.0,28.0,30.08,NNW,328,10.0,-999.0,66,-99.99,,,-99.99,,2013-03-17 22:02:00,
2013-03-17 15:12:00,38.0,26.0,30.08,West,281,7.0,-999.0,62,-99.99,,,-99.99,,2013-03-17 22:12:00,
2013-03-17 15:23:00,38.0,26.0,30.08,West,281,7.0,-999.0,62,-99.99,,,-99.99,,2013-03-17 22:23:00,
2013-03-17 15:33:00,38.0,27.0,30.08,West,281,7.0,-999.0,63,-99.99,,,-99.99,,2013-03-17 22:33:00,
2013-03-17 15:42:00,38.0,27.0,30.08,West,281,7.0,-999.0,63,-99.99,,,-99.99,,2013-03-17 22:42:00,
2013-03-17 15:52:00,39.0,26.0,30.09,WNW,284,6.0,-999.0,59,-99.99,,,-99.99,,2013-03-17 22:52:00,
2013-03-17 16:02:00,38.0,29.0,30.09,SSW,207,8.0,-999.0,69,-99.99,,,-99.99,,2013-03-17 23:02:00,
2013-03-17 16:12:00,38.0,29.0,30.09,SSW,207,8.0,-999.0,69,-99.99,,,-99.99,,2013-03-17 23:12:00,
2013-03-17 16:22:00,38.0,27.0,30.09,SSW,204,6.0,-999.0,65,-99.99,,,-99.99,,2013-03-17 23:22:00,
2013-03-17 16:32:00,36.0,26.0,30.10,SSW,209,7.0,-999.0,68,-99.99,,,-99.99,,2013-03-17 23:32:00,
2013-03-17 16:42:00,36.0,26.0,30.10,SSW,209,7.0,-999.0,68,-99.99,,,-99.99,,2013-03-17 23:42:00,
2013-03-17 16:52:00,35.0,26.0,30.11,SSW,212,8.0,-999.0,68,-99.99,,,-99.99,,2013-03-17 23:52:00,
2013-03-17 17:02:00,36.0,26.0,30.11,SW,235,9.0,-999.0,67,-99.99,,,-99.99,,2013-03-18 00:02:00,
2013-03-17 17:11:00,36.0,26.0,30.11,SW,235,9.0,-999.0,67,-99.99,,,-99.99,,2013-03-18 00:11:00,
2013-03-17 17:22:00,37.0,26.0,30.11,SW,219,8.0,-999.0,64,-99.99,,,-99.99,,2013-03-18 00:22:00,
2013-03-17 17:32:00,37.0,23.0,30.12,SW,226,7.0,-999.0,57,-99.99,,,-99.99,,2013-03-18 00:32:00,
2013-03-17 17:42:00,37.0,23.0,30.12,SW,226,7.0,-999.0,57,-99.99,,,-99.99,,2013-03-18 00:42:00,
2013-03-17 17:52:00,35.0,25.0,30.12,SSW,213,10.0,-999.0,66,-99.99,,,-99.99,,2013-03-18 00:52:00,
2013-03-17 18:01:00,35.0,26.0,30.12,SSW,200,4.0,-999.0,69,-99.99,,,-99.99,,2013-03-18 01:01:00,
2013-03-17 18:11:00,35.0,26.0,30.12,SSW,200,4.0,-999.0,69,-99.99,,,-99.99,,2013-03-18 01:11:00,
2013-03-17 18:21:00,36.0,26.0,30.13,SW,215,4.0,-999.0,66,-99.99,,,-99.99,,2013-03-18 01:21:00,
2013-03-17 18:31:00,36.0,23.0,30.12,SSW,200,7.0,-999.0,59,-99.99,,,-99.99,,2013-03-18 01:31:00,
2013-03-17 18:41:00,36.0,23.0,30.12,SSW,200,7.0,-999.0,59,-99.99,,,-99.99,,2013-03-18 01:41:00,
2013-03-17 18:52:00,36.0,23.0,30.13,SSW,205,7.0,-999.0,58,-99.99,,,-99.99,,2013-03-18 01:52:00,
2013-03-17 19:02:00,35.0,23.0,30.13,SW,225,4.0,-999.0,60,-99.99,,,-99.99,,2013-03-18 02:02:00,
2013-03-17 19:11:00,35.0,23.0,30.13,SW,225,4.0,-999.0,60,-99.99,,,-99.99,,2013-03-18 02:11:00,
2013-03-17 19:22:00,35.0,23.0,30.14,SSW,213,4.0,-999.0,61,-99.99,,,-99.99,,2013-03-18 02:22:00,
2013-03-17 19:32:00,35.0,24.0,30.14,WSW,257,4.0,-999.0,63,-99.99,,,-99.99,,2013-03-18 02:32:00,
2013-03-17 19:42:00,35.0,24.0,30.14,WSW,257,4.0,-999.0,63,-99.99,,,-99.99,,2013-03-18 02:42:00,
2013-03-17 19:52:00,34.0,23.0,30.14,SW,222,3.0,-999.0,63,-99.99,,,-99.99,,2013-03-18 02:52:00,
2013-03-17 20:02:00,33.0,26.0,30.15,NW,313,5.0,-999.0,76,-99.99,,,-99.99,,2013-03-18 03:02:00,
2013-03-17 20:11:00,33.0,26.0,30.15,NW,313,5.0,-999.0,76,-99.99,,,-99.99,,2013-03-18 03:11:00,
2013-03-17 20:21:00,32.0,27.0,30.15,NW,304,5.0,-999.0,82,-99.99,,,-99.99,,2013-03-18 03:21:00,
2013-03-17 20:32:00,31.0,27.0,30.15,WNW,302,3.0,-999.0,84,-99.99,,,-99.99,,2013-03-18 03:32:00,
2013-03-17 20:42:00,31.0,27.0,30.15,WNW,302,3.0,-999.0,84,-99.99,,,-99.99,,2013-03-18 03:42:00,
2013-03-17 20:53:00,31.0,27.0,30.15,NW,306,5.0,-999.0,86,-99.99,,,-99.99,,2013-03-18 03:53:00,
2013-03-17 21:02:00,31.0,28.0,30.16,NW,317,5.0,-999.0,87,-99.99,,,-99.99,,2013-03-18 04:02:00,
2013-03-17 21:12:00,31.0,28.0,30.16,NW,317,5.0,-999.0,87,-99.99,,,-99.99,,2013-03-18 04:12:00,
2013-03-17 21:22:00,31.0,28.0,30.16,WNW,299,3.0,-999.0,87,-99.99,,,-99.99,,2013-03-18 04:22:00,
2013-03-17 21:32:00,31.0,28.0,30.16,WNW,299,3.0,-999.0,88,-99.99,,,-99.99,,2013-03-18 04:32:00,
2013-03-17 21:42:00,31.0,28.0,30.16,WNW,299,3.0,-999.0,88,-99.99,,,-99.99,,2013-03-18 04:42:00,
2013-03-17 21:52:00,31.0,28.0,30.16,WNW,299,0.0,-999.0,89,-99.99,,,-99.99,,2013-03-18 04:52:00,
2013-03-17 22:02:00,31.0,28.0,30.15,WNW,299,1.0,-999.0,89,-99.99,,,-99.99,,2013-03-18 05:02:00,
2013-03-17 22:12:00,31.0,28.0,30.15,WNW,299,1.0,-999.0,89,-99.99,,,-99.99,,2013-03-18 05:12:00,
2013-03-17 22:22:00,31.0,28.0,30.16,WNW,299,0.0,-999.0,89,-99.99,,,-99.99,,2013-03-18 05:22:00,
2013-03-17 22:32:00,31.0,28.0,30.17,WNW,299,0.0,-999.0,90,-99.99,,,-99.99,,2013-03-18 05:32:00,
2013-03-17 22:42:00,31.0,28.0,30.17,WNW,299,0.0,-999.0,90,-99.99,,,-99.99,,2013-03-18 05:42:00,
2013-03-17 22:52:00,31.0,28.0,30.16,WNW,299,0.0,-999.0,89,-99.99,,,-99.99,,2013-03-18 05:52:00,
2013-03-17 23:01:00,31.0,28.0,30.16,WNW,299,0.0,-999.0,88,-99.99,,,-99.99,,2013-03-18 06:01:00,
2013-03-17 23:12:00,31.0,28.0,30.16,WNW,299,0.0,-999.0,88,-99.99,,,-99.99,,2013-03-18 06:12:00,
2013-03-17 23:22:00,30.0,27.0,30.17,WNW,299,0.0,-999.0,89,-99.99,,,-99.99,,2013-03-18 06:22:00,
2013-03-17 23:32:00,30.0,27.0,30.17,WNW,299,0.0,-999.0,89,-99.99,,,-99.99,,2013-03-18 06:32:00,
2013-03-17 23:42:00,30.0,27.0,30.17,WNW,299,0.0,-999.0,89,-99.99,,,-99.99,,2013-03-18 06:42:00,
2013-03-17 23:52:00,31.0,28.0,30.16,WNW,299,0.0,-999.0,89,-99.99,,,-99.99,,2013-03-18 06:52:00,